Time,TemperatureF,DewpointF,PressureIn,WindDirection,WindDirectionDegrees,WindSpeedMPH,WindSpeedGustMPH,Humidity,HourlyPrecipIn,Conditions,Clouds,dailyrainin,SoftwareType,DateUTC
2013-04-22 00:01:00,64.9,16.2,30.02,East,80,0.0,0.0,15,0.00,,---,0.00,VWS V14.00,2013-04-22 07:01:00,
2013-04-22 00:05:00,64.8,16.1,30.02,East,80,0.0,0.0,15,0.00,,---,0.00,VWS V14.00,2013-04-22 07:05:00,
2013-04-22 00:10:00,64.4,15.8,30.02,East,80,0.0,0.0,15,0.00,,---,0.00,VWS V14.00,2013-04-22 07:10:00,
2013-04-22 00:15:00,64.2,17.1,30.02,East,79,0.0,0.0,16,0.00,,---,0.00,VWS V14.00,2013-04-22 07:15:00,
2013-04-22 00:20:00,64.2,17.1,30.02,East,79,0.0,3.6,16,0.00,,---,0.00,VWS V14.00,2013-04-22 07:20:00,
2013-04-22 00:25:00,64.0,17.0,30.02,East,79,0.0,3.6,16,0.00,,---,0.00,VWS V14.00,2013-04-22 07:25:00,
2013-04-22 00:30:00,64.2,17.1,30.02,East,79,0.0,4.0,16,0.00,,---,0.00,VWS V14.00,2013-04-22 07:30:00,
2013-04-22 00:35:00,64.0,17.0,30.02,East,79,0.0,4.0,16,0.00,,---,0.00,VWS V14.00,2013-04-22 07:35:00,
2013-04-22 00:40:00,63.7,16.7,30.02,East,79,0.0,4.0,16,0.00,,---,0.00,VWS V14.00,2013-04-22 07:40:00,
2013-04-22 00:45:00,63.5,16.5,30.02,East,79,0.0,0.0,16,0.00,,---,0.00,VWS V14.00,2013-04-22 07:45:00,
2013-04-22 00:50:00,63.1,16.2,30.02,East,79,0.0,0.0,16,0.00,,---,0.00,VWS V14.00,2013-04-22 07:50:00,
2013-04-22 00:55:00,62.8,15.9,30.02,East,79,0.0,0.0,16,0.00,,---,0.00,VWS V14.00,2013-04-22 07:55:00,
2013-04-22 01:00:00,62.2,15.5,30.02,East,79,0.0,0.0,16,0.00,,---,0.00,VWS V14.00,2013-04-22 08:00:00,
2013-04-22 01:05:00,61.9,15.2,30.02,East,79,0.0,0.0,16,0.00,,---,0.00,VWS V14.00,2013-04-22 08:05:00,
2013-04-22 01:10:00,61.3,14.8,30.02,East,79,0.0,0.0,16,0.00,,---,0.00,VWS V14.00,2013-04-22 08:10:00,
2013-04-22 01:15:00,61.0,14.5,30.02,East,79,0.0,0.0,16,0.00,,---,0.00,VWS V14.00,2013-04-22 08:15:00,
2013-04-22 01:20:00,60.8,14.4,30.02,East,79,0.0,0.0,16,0.00,,---,0.00,VWS V14.00,2013-04-22 08:20:00,
2013-04-22 01:26:00,60.4,15.4,30.02,East,79,0.0,0.0,17,0.00,,---,0.00,VWS V14.00,2013-04-22 08:26:00,
2013-04-22 01:31:00,60.1,15.1,30.02,East,79,0.0,0.0,17,0.00,,---,0.00,VWS V14.00,2013-04-22 08:31:00,
2013-04-22 01:36:00,59.5,14.7,30.02,East,79,0.0,0.0,17,0.00,,---,0.00,VWS V14.00,2013-04-22 08:36:00,
2013-04-22 01:41:00,59.2,14.4,30.02,East,79,0.0,0.0,17,0.00,,---,0.00,VWS V14.00,2013-04-22 08:41:00,
2013-04-22 01:46:00,59.0,14.3,30.02,East,79,0.0,0.0,17,0.00,,---,0.00,VWS V14.00,2013-04-22 08:46:00,
2013-04-22 01:51:00,58.8,14.1,30.02,East,79,0.0,0.0,17,0.00,,---,0.00,VWS V14.00,2013-04-22 08:51:00,
2013-04-22 01:56:00,58.5,13.8,30.02,East,79,0.0,0.0,17,0.00,,---,0.00,VWS V14.00,2013-04-22 08:56:00,
2013-04-22 02:01:00,58.3,13.7,30.02,East,79,0.0,0.0,17,0.00,,---,0.00,VWS V14.00,2013-04-22 09:01:00,
2013-04-22 02:06:00,57.9,13.4,30.02,East,79,0.0,0.0,17,0.00,,---,0.00,VWS V14.00,2013-04-22 09:06:00,
2013-04-22 02:11:00,57.7,13.2,30.02,East,79,0.0,0.0,17,0.00,,---,0.00,VWS V14.00,2013-04-22 09:11:00,
2013-04-22 02:16:00,57.6,13.1,30.02,East,79,0.0,0.0,17,0.00,,---,0.00,VWS V14.00,2013-04-22 09:16:00,
2013-04-22 02:21:00,57.4,12.9,30.02,East,79,0.0,0.0,17,0.00,,---,0.00,VWS V14.00,2013-04-22 09:21:00,
2013-04-22 02:26:00,57.0,12.7,30.02,East,79,0.0,0.0,17,0.00,,---,0.00,VWS V14.00,2013-04-22 09:26:00,
2013-04-22 02:31:00,56.8,12.5,30.02,East,79,0.0,0.0,17,0.00,,---,0.00,VWS V14.00,2013-04-22 09:31:00,
2013-04-22 02:36:00,56.5,12.2,30.02,East,79,0.0,0.0,17,0.00,,---,0.00,VWS V14.00,2013-04-22 09:36:00,
2013-04-22 02:41:00,56.3,12.1,30.02,East,79,0.0,0.0,17,0.00,,---,0.00,VWS V14.00,2013-04-22 09:41:00,
2013-04-22 02:46:00,55.9,11.8,30.02,East,79,0.0,0.0,17,0.00,,---,0.00,VWS V14.00,2013-04-22 09:46:00,
2013-04-22 02:51:00,55.8,11.6,30.02,East,79,0.0,0.0,17,0.00,,---,0.00,VWS V14.00,2013-04-22 09:51:00,
2013-04-22 02:56:00,55.4,11.3,30.02,East,79,0.0,0.0,17,0.00,,---,0.00,VWS V14.00,2013-04-22 09:56:00,
2013-04-22 03:00:00,55.2,14.9,30.02,East,79,0.0,0.0,20,0.00,,---,0.00,VWS V14.00,2013-04-22 10:00:00,
2013-04-22 03:05:00,54.9,14.6,30.02,East,79,0.0,0.0,20,0.00,,---,0.00,VWS V14.00,2013-04-22 10:05:00,
2013-04-22 03:10:00,54.7,14.4,30.02,East,79,0.0,0.0,20,0.00,,---,0.00,VWS V14.00,2013-04-22 10:10:00,
2013-04-22 03:15:00,54.3,14.1,30.02,East,79,0.0,0.0,20,0.00,,---,0.00,VWS V14.00,2013-04-22 10:15:00,
2013-04-22 03:20:00,54.1,14.0,30.02,East,79,0.0,0.0,20,0.00,,---,0.00,VWS V14.00,2013-04-22 10:20:00,
2013-04-22 03:25:00,54.0,13.8,30.02,East,79,0.0,0.0,20,0.00,,---,0.00,VWS V14.00,2013-04-22 10:25:00,
2013-04-22 03:30:00,53.8,13.7,30.02,East,79,0.0,0.0,20,0.00,,---,0.00,VWS V14.00,2013-04-22 10:30:00,
2013-04-22 03:35:00,53.8,13.7,30.02,East,79,0.0,0.0,20,0.00,,---,0.00,VWS V14.00,2013-04-22 10:35:00,
2013-04-22 03:40:00,53.6,13.5,30.02,East,79,0.0,0.0,20,0.00,,---,0.00,VWS V14.00,2013-04-22 10:40:00,
2013-04-22 03:45:00,53.6,13.5,30.02,East,79,0.0,0.0,20,0.00,,---,0.00,VWS V14.00,2013-04-22 10:45:00,
2013-04-22 03:50:00,53.6,13.5,30.02,East,79,0.0,0.0,20,0.00,,---,0.00,VWS V14.00,2013-04-22 10:50:00,
2013-04-22 03:55:00,53.6,13.5,30.02,East,79,0.0,0.0,20,0.00,,---,0.00,VWS V14.00,2013-04-22 10:55:00,
2013-04-22 04:00:00,53.4,14.5,30.02,East,79,0.0,0.0,21,0.00,,---,0.00,VWS V14.00,2013-04-22 11:00:00,
2013-04-22 04:05:00,53.4,14.5,30.02,East,79,0.0,0.0,21,0.00,,---,0.00,VWS V14.00,2013-04-22 11:05:00,
2013-04-22 04:10:00,53.6,13.5,30.02,East,79,0.0,0.0,20,0.00,,---,0.00,VWS V14.00,2013-04-22 11:10:00,
2013-04-22 04:15:00,53.6,13.5,30.02,East,79,0.0,0.0,20,0.00,,---,0.00,VWS V14.00,2013-04-22 11:15:00,
2013-04-22 04:20:00,53.4,14.5,30.02,East,79,0.0,0.0,21,0.00,,---,0.00,VWS V14.00,2013-04-22 11:20:00,
2013-04-22 04:25:00,53.4,14.5,30.02,East,79,0.0,0.0,21,0.00,,---,0.00,VWS V14.00,2013-04-22 11:25:00,
2013-04-22 04:30:00,53.2,14.3,30.02,East,79,0.0,0.0,21,0.00,,---,0.00,VWS V14.00,2013-04-22 11:30:00,
2013-04-22 04:35:00,52.9,16.1,30.02,East,79,0.0,0.0,23,0.00,,---,0.00,VWS V14.00,2013-04-22 11:35:00,
2013-04-22 04:40:00,52.7,16.0,30.02,East,79,0.0,0.0,23,0.00,,---,0.00,VWS V14.00,2013-04-22 11:40:00,
2013-04-22 04:45:00,52.7,16.0,30.02,East,79,0.0,0.0,23,0.00,,---,0.00,VWS V14.00,2013-04-22 11:45:00,
2013-04-22 04:50:00,52.7,16.0,30.02,East,79,0.0,0.0,23,0.00,,---,0.00,VWS V14.00,2013-04-22 11:50:00,
2013-04-22 04:55:00,52.5,15.8,30.02,East,79,0.0,0.0,23,0.00,,---,0.00,VWS V14.00,2013-04-22 11:55:00,
2013-04-22 05:00:00,52.3,15.7,30.02,East,79,0.0,0.0,23,0.00,,---,0.00,VWS V14.00,2013-04-22 12:00:00,
2013-04-22 05:05:00,52.3,15.7,30.02,East,79,0.0,0.0,23,0.00,,---,0.00,VWS V14.00,2013-04-22 12:05:00,
2013-04-22 05:10:00,52.0,15.4,30.02,East,79,0.0,0.0,23,0.00,,---,0.00,VWS V14.00,2013-04-22 12:10:00,
2013-04-22 05:15:00,51.8,15.2,30.02,East,79,0.0,0.0,23,0.00,,---,0.00,VWS V14.00,2013-04-22 12:15:00,
2013-04-22 05:20:00,51.6,16.0,30.02,East,79,0.0,0.0,24,0.00,,---,0.00,VWS V14.00,2013-04-22 12:20:00,
2013-04-22 05:25:00,51.4,15.9,30.02,East,79,0.0,0.0,24,0.00,,---,0.00,VWS V14.00,2013-04-22 12:25:00,
2013-04-22 05:30:00,51.3,15.7,30.02,East,79,0.0,0.0,24,0.00,,---,0.00,VWS V14.00,2013-04-22 12:30:00,
2013-04-22 05:35:00,51.1,15.6,30.02,East,79,0.0,0.0,24,0.00,,---,0.00,VWS V14.00,2013-04-22 12:35:00,
2013-04-22 05:40:00,51.1,15.6,30.02,East,79,0.0,0.0,24,0.00,,---,0.00,VWS V14.00,2013-04-22 12:40:00,
2013-04-22 05:45:00,51.1,17.4,30.02,East,79,0.0,0.0,26,0.00,,---,0.00,VWS V14.00,2013-04-22 12:45:00,
2013-04-22 05:50:00,51.1,17.4,30.02,East,79,0.0,0.0,26,0.00,,---,0.00,VWS V14.00,2013-04-22 12:50:00,
2013-04-22 05:55:00,51.1,17.4,30.02,East,79,0.0,0.0,26,0.00,,---,0.00,VWS V14.00,2013-04-22 12:55:00,
2013-04-22 06:00:00,50.9,17.2,30.02,East,79,0.0,0.0,26,0.00,,---,0.00,VWS V14.00,2013-04-22 13:00:00,
2013-04-22 06:05:00,50.7,17.1,30.02,East,79,0.0,0.0,26,0.00,,---,0.00,VWS V14.00,2013-04-22 13:05:00,
2013-04-22 06:10:00,50.5,17.0,30.02,ENE,78,0.0,0.0,26,0.00,,---,0.00,VWS V14.00,2013-04-22 13:10:00,
2013-04-22 06:15:00,50.4,16.8,30.02,ENE,77,0.0,0.0,26,0.00,,---,0.00,VWS V14.00,2013-04-22 13:15:00,
2013-04-22 06:20:00,50.4,16.8,30.02,ENE,77,0.0,0.0,26,0.00,,---,0.00,VWS V14.00,2013-04-22 13:20:00,
2013-04-22 06:25:00,50.4,17.7,30.02,ENE,78,0.0,0.0,27,0.00,,---,0.00,VWS V14.00,2013-04-22 13:25:00,
2013-04-22 06:30:00,50.9,18.1,30.02,ENE,77,0.0,0.0,27,0.00,,---,0.00,VWS V14.00,2013-04-22 13:30:00,
2013-04-22 06:35:00,51.6,18.8,30.02,ENE,77,0.0,0.0,27,0.00,,---,0.00,VWS V14.00,2013-04-22 13:35:00,
2013-04-22 06:40:00,52.5,18.6,30.02,ESE,105,0.0,3.1,26,0.00,,---,0.00,VWS V14.00,2013-04-22 13:40:00,
2013-04-22 06:45:00,53.6,19.6,30.02,ESE,106,0.0,0.0,26,0.00,,---,0.00,VWS V14.00,2013-04-22 13:45:00,
2013-04-22 06:50:00,54.5,20.3,30.02,ESE,106,0.0,0.0,26,0.00,,---,0.00,VWS V14.00,2013-04-22 13:50:00,
2013-04-22 06:55:00,55.8,20.5,30.02,ESE,106,0.0,0.0,25,0.00,,---,0.00,VWS V14.00,2013-04-22 13:55:00,
2013-04-22 07:00:00,56.7,21.3,30.02,ESE,106,0.0,0.0,25,0.00,,---,0.00,VWS V14.00,2013-04-22 14:00:00,
2013-04-22 07:05:00,57.6,22.0,30.02,ESE,106,0.0,0.0,25,0.00,,---,0.00,VWS V14.00,2013-04-22 14:05:00,
2013-04-22 07:10:00,58.5,22.8,30.05,ESE,108,0.0,0.0,25,0.00,,---,0.00,VWS V14.00,2013-04-22 14:10:00,
2013-04-22 07:15:00,59.7,22.9,30.05,SSW,211,0.0,0.0,24,0.00,,---,0.00,VWS V14.00,2013-04-22 14:15:00,
2013-04-22 07:20:00,60.8,23.8,30.05,SW,220,3.6,5.4,24,0.00,,---,0.00,VWS V14.00,2013-04-22 14:20:00,
2013-04-22 07:25:00,61.5,24.4,30.05,SW,229,2.2,5.4,24,0.00,,---,0.00,VWS V14.00,2013-04-22 14:25:00,
2013-04-22 07:30:00,62.1,24.9,30.05,SSW,202,4.0,5.4,24,0.00,,---,0.00,VWS V14.00,2013-04-22 14:30:00,
2013-04-22 07:35:00,62.6,22.1,30.05,SW,222,3.1,5.8,21,0.00,,---,0.00,VWS V14.00,2013-04-22 14:35:00,
2013-04-22 07:40:00,63.0,22.5,30.05,SSE,161,0.0,5.8,21,0.00,,---,0.00,VWS V14.00,2013-04-22 14:40:00,
2013-04-22 07:45:00,63.5,22.9,30.05,South,187,2.2,2.7,21,0.00,,---,0.00,VWS V14.00,2013-04-22 14:45:00,
2013-04-22 07:50:00,64.0,23.3,30.05,SSW,199,0.0,4.0,21,0.00,,---,0.00,VWS V14.00,2013-04-22 14:50:00,
2013-04-22 07:55:00,64.8,22.8,30.05,SW,222,2.7,4.0,20,0.00,,---,0.00,VWS V14.00,2013-04-22 14:55:00,
2013-04-22 08:00:00,65.5,23.4,30.05,SSE,163,4.0,4.0,20,0.00,,---,0.00,VWS V14.00,2013-04-22 15:00:00,
2013-04-22 08:05:00,66.0,23.8,30.05,ESE,103,2.7,4.0,20,0.00,,---,0.00,VWS V14.00,2013-04-22 15:05:00,
2013-04-22 08:10:00,66.9,24.6,30.05,SSW,199,3.1,4.0,20,0.00,,---,0.00,VWS V14.00,2013-04-22 15:10:00,
2013-04-22 08:15:00,68.0,25.5,30.05,SSW,205,2.2,3.6,20,0.00,,---,0.00,VWS V14.00,2013-04-22 15:15:00,
2013-04-22 08:20:00,68.7,26.1,30.05,South,191,3.6,4.0,20,0.00,,---,0.00,VWS V14.00,2013-04-22 15:20:00,
2013-04-22 08:25:00,69.4,22.8,30.05,SSW,208,0.0,4.0,17,0.00,,---,0.00,VWS V14.00,2013-04-22 15:25:00,
2013-04-22 08:30:00,70.2,23.4,30.05,SSW,204,4.0,4.0,17,0.00,,---,0.00,VWS V14.00,2013-04-22 15:30:00,
2013-04-22 08:35:00,70.9,23.9,30.05,SE,141,2.2,4.0,17,0.00,,---,0.00,VWS V14.00,2013-04-22 15:35:00,
2013-04-22 08:40:00,71.6,23.1,30.05,SSW,211,4.0,4.9,16,0.00,,---,0.00,VWS V14.00,2013-04-22 15:40:00,
2013-04-22 08:45:00,72.5,23.8,30.05,SSW,198,3.1,5.8,16,0.00,,---,0.00,VWS V14.00,2013-04-22 15:45:00,
2013-04-22 08:50:00,73.4,24.5,30.05,SSW,204,0.0,5.8,16,0.00,,---,0.00,VWS V14.00,2013-04-22 15:50:00,
2013-04-22 08:55:00,74.1,25.1,30.05,SE,145,2.7,5.8,16,0.00,,---,0.00,VWS V14.00,2013-04-22 15:55:00,
2013-04-22 09:00:00,74.8,25.7,30.05,SSW,198,3.1,4.0,16,0.00,,---,0.00,VWS V14.00,2013-04-22 16:00:00,
2013-04-22 09:05:00,75.7,24.9,30.05,SSE,161,3.1,4.9,15,0.00,,---,0.00,VWS V14.00,2013-04-22 16:05:00,
2013-04-22 09:10:00,76.3,25.3,30.05,SSW,205,4.0,5.8,15,0.00,,---,0.00,VWS V14.00,2013-04-22 16:10:00,
2013-04-22 09:15:00,77.0,25.9,30.05,SSE,167,3.1,4.0,15,0.00,,---,0.00,VWS V14.00,2013-04-22 16:15:00,
2013-04-22 09:20:00,77.4,26.1,30.05,SW,215,3.6,5.4,15,0.00,,---,0.00,VWS V14.00,2013-04-22 16:20:00,
2013-04-22 09:25:00,77.7,26.4,30.05,South,190,3.1,5.4,15,0.00,,---,0.00,VWS V14.00,2013-04-22 16:25:00,
2013-04-22 09:30:00,78.1,26.7,30.05,SSW,205,4.0,5.8,15,0.00,,---,0.00,VWS V14.00,2013-04-22 16:30:00,
2013-04-22 09:35:00,78.4,27.0,30.05,South,184,3.1,5.8,15,0.00,,---,0.00,VWS V14.00,2013-04-22 16:35:00,
2013-04-22 09:40:00,78.8,27.3,30.02,SSW,210,5.4,5.8,15,0.00,,---,0.00,VWS V14.00,2013-04-22 16:40:00,
2013-04-22 09:45:00,79.5,27.9,30.02,South,186,3.6,5.4,15,0.00,,---,0.00,VWS V14.00,2013-04-22 16:45:00,
2013-04-22 09:50:00,80.1,28.3,30.02,SSE,161,2.2,5.8,15,0.00,,---,0.00,VWS V14.00,2013-04-22 16:50:00,
2013-04-22 09:55:00,80.6,27.0,30.02,SSW,203,3.1,5.8,14,0.00,,---,0.00,VWS V14.00,2013-04-22 16:55:00,
2013-04-22 10:00:00,81.1,27.5,30.02,SE,143,5.8,5.8,14,0.00,,---,0.00,VWS V14.00,2013-04-22 17:00:00,
2013-04-22 10:05:00,81.7,27.9,30.02,SSW,192,0.0,5.8,14,0.00,,---,0.00,VWS V14.00,2013-04-22 17:05:00,
2013-04-22 10:10:00,82.2,28.3,30.02,SE,126,5.4,6.3,14,0.00,,---,0.00,VWS V14.00,2013-04-22 17:10:00,
2013-04-22 10:15:00,82.6,28.6,30.02,ESE,108,2.7,3.1,14,0.00,,---,0.00,VWS V14.00,2013-04-22 17:15:00,
2013-04-22 10:20:00,83.1,29.0,30.02,SE,141,2.2,7.6,14,0.00,,---,0.00,VWS V14.00,2013-04-22 17:20:00,
2013-04-22 10:25:00,83.5,29.3,30.02,ENE,68,0.0,7.6,14,0.00,,---,0.00,VWS V14.00,2013-04-22 17:25:00,
2013-04-22 10:30:00,84.0,29.8,30.02,SW,224,3.1,4.9,14,0.00,,---,0.00,VWS V14.00,2013-04-22 17:30:00,
2013-04-22 10:35:00,84.4,28.2,30.02,SW,223,0.0,4.9,13,0.00,,---,0.00,VWS V14.00,2013-04-22 17:35:00,
2013-04-22 10:40:00,84.7,28.5,30.02,West,275,2.7,4.9,13,0.00,,---,0.00,VWS V14.00,2013-04-22 17:40:00,
2013-04-22 10:45:00,85.3,24.9,30.02,SW,233,3.6,5.4,11,0.00,,---,0.00,VWS V14.00,2013-04-22 17:45:00,
2013-04-22 10:50:00,85.3,24.9,30.02,SE,141,0.0,5.4,11,0.00,,---,0.00,VWS V14.00,2013-04-22 17:50:00,
2013-04-22 10:55:00,85.6,25.2,30.02,SW,224,3.6,5.4,11,0.00,,---,0.00,VWS V14.00,2013-04-22 17:55:00,
2013-04-22 11:00:00,86.2,25.6,30.02,SSW,211,3.1,5.4,11,0.00,,---,0.00,VWS V14.00,2013-04-22 18:00:00,
2013-04-22 11:05:00,86.5,29.9,30.02,SSW,213,3.1,5.8,13,0.00,,---,0.00,VWS V14.00,2013-04-22 18:05:00,
2013-04-22 11:10:00,86.9,26.1,30.02,SSW,208,3.6,5.8,11,0.00,,---,0.00,VWS V14.00,2013-04-22 18:10:00,
2013-04-22 11:15:00,87.1,26.3,30.02,SE,138,2.2,4.9,11,0.00,,---,0.00,VWS V14.00,2013-04-22 18:15:00,
2013-04-22 11:20:00,87.3,26.4,30.02,SSW,208,3.6,6.3,11,0.00,,---,0.00,VWS V14.00,2013-04-22 18:20:00,
2013-04-22 11:25:00,87.3,26.4,29.99,East,91,3.1,6.3,11,0.00,,---,0.00,VWS V14.00,2013-04-22 18:25:00,
2013-04-22 11:30:00,87.4,26.5,29.99,SSW,203,0.0,0.0,11,0.00,,---,0.00,VWS V14.00,2013-04-22 18:30:00,
2013-04-22 11:35:00,87.6,26.7,29.99,South,172,3.1,4.9,11,0.00,,---,0.00,VWS V14.00,2013-04-22 18:35:00,
2013-04-22 11:40:00,87.6,26.7,29.99,SSE,148,2.7,5.8,11,0.00,,---,0.00,VWS V14.00,2013-04-22 18:40:00,
2013-04-22 11:45:00,88.2,24.8,29.99,West,261,4.9,5.4,10,0.00,,---,0.00,VWS V14.00,2013-04-22 18:45:00,
2013-04-22 11:50:00,88.2,24.8,29.99,WSW,256,0.0,6.7,10,0.00,,---,0.00,VWS V14.00,2013-04-22 18:50:00,
2013-04-22 11:55:00,88.5,25.1,29.99,South,179,3.1,6.7,10,0.00,,---,0.00,VWS V14.00,2013-04-22 18:55:00,
2013-04-22 12:00:00,88.7,25.2,29.99,SSW,192,2.2,5.8,10,0.00,,---,0.00,VWS V14.00,2013-04-22 19:00:00,
2013-04-22 12:05:00,88.9,25.3,29.99,SW,216,5.8,6.3,10,0.00,,---,0.00,VWS V14.00,2013-04-22 19:05:00,
2013-04-22 12:10:00,89.1,25.5,29.99,East,97,4.9,6.3,10,0.00,,---,0.00,VWS V14.00,2013-04-22 19:10:00,
2013-04-22 12:15:00,89.1,25.5,29.99,East,101,4.0,5.8,10,0.00,,---,0.00,VWS V14.00,2013-04-22 19:15:00,
2013-04-22 12:20:00,89.4,25.8,29.99,SW,235,2.2,5.8,10,0.00,,---,0.00,VWS V14.00,2013-04-22 19:20:00,
2013-04-22 12:25:00,89.6,25.9,29.96,WSW,256,0.0,6.3,10,0.00,,---,0.00,VWS V14.00,2013-04-22 19:25:00,
2013-04-22 12:30:00,90.1,26.3,29.96,WNW,282,3.6,6.3,10,0.00,,---,0.00,VWS V14.00,2013-04-22 19:30:00,
2013-04-22 12:35:00,90.1,26.3,29.96,NW,305,3.6,7.6,10,0.00,,---,0.00,VWS V14.00,2013-04-22 19:35:00,
2013-04-22 12:40:00,90.3,26.4,29.96,WNW,291,4.9,7.6,10,0.00,,---,0.00,VWS V14.00,2013-04-22 19:40:00,
2013-04-22 12:45:00,90.7,26.7,29.96,NNE,12,4.0,5.8,10,0.00,,---,0.00,VWS V14.00,2013-04-22 19:45:00,
2013-04-22 12:50:00,91.0,27.0,29.96,ESE,102,0.0,5.8,10,0.00,,---,0.00,VWS V14.00,2013-04-22 19:50:00,
2013-04-22 12:55:00,91.6,31.9,29.96,NNW,333,2.7,8.3,12,0.00,,---,0.00,VWS V14.00,2013-04-22 19:55:00,
2013-04-22 13:00:00,91.9,25.1,29.96,NNW,339,3.1,6.3,9,0.00,,---,0.00,VWS V14.00,2013-04-22 20:00:00,
2013-04-22 13:05:00,92.3,32.4,29.96,NE,36,4.9,6.3,12,0.00,,---,0.00,VWS V14.00,2013-04-22 20:05:00,
2013-04-22 13:10:00,92.7,25.6,29.96,North,7,5.8,8.7,9,0.00,,---,0.00,VWS V14.00,2013-04-22 20:10:00,
2013-04-22 13:15:00,92.8,25.8,29.96,WSW,238,3.6,7.6,9,0.00,,---,0.00,VWS V14.00,2013-04-22 20:15:00,
2013-04-22 13:20:00,93.2,31.0,29.96,WNW,286,3.6,7.6,11,0.00,,---,0.00,VWS V14.00,2013-04-22 20:20:00,
2013-04-22 13:25:00,93.7,31.4,29.93,West,259,0.0,7.6,11,0.00,,---,0.00,VWS V14.00,2013-04-22 20:25:00,
2013-04-22 13:30:00,93.6,31.2,29.93,North,3,5.4,8.7,11,0.00,,---,0.00,VWS V14.00,2013-04-22 20:30:00,
2013-04-22 13:35:00,93.4,31.1,29.93,NNE,28,3.1,8.7,11,0.00,,---,0.00,VWS V14.00,2013-04-22 20:35:00,
2013-04-22 13:40:00,93.2,26.0,29.93,NNW,329,4.0,8.7,9,0.00,,---,0.00,VWS V14.00,2013-04-22 20:40:00,
2013-04-22 13:45:00,93.2,26.0,29.93,NNE,32,0.0,5.4,9,0.00,,---,0.00,VWS V14.00,2013-04-22 20:45:00,
2013-04-22 13:50:00,93.6,31.2,29.93,WSW,254,4.9,8.7,11,0.00,,---,0.00,VWS V14.00,2013-04-22 20:50:00,
2013-04-22 13:55:00,93.7,31.4,29.93,NNW,344,7.2,8.7,11,0.00,,---,0.00,VWS V14.00,2013-04-22 20:55:00,
2013-04-22 14:00:00,93.6,26.3,29.93,NW,318,5.4,8.1,9,0.00,,---,0.00,VWS V14.00,2013-04-22 21:00:00,
2013-04-22 14:05:00,93.7,31.4,29.93,WNW,286,5.4,11.0,11,0.00,,---,0.00,VWS V14.00,2013-04-22 21:05:00,
2013-04-22 14:10:00,94.3,31.8,29.93,NNW,331,8.1,13.6,11,0.00,,---,0.00,VWS V14.00,2013-04-22 21:10:00,
2013-04-22 14:15:00,94.3,31.8,29.93,North,357,6.3,9.2,11,0.00,,---,0.00,VWS V14.00,2013-04-22 21:15:00,
2013-04-22 14:20:00,94.3,31.8,29.93,NNE,25,2.7,9.2,11,0.00,,---,0.00,VWS V14.00,2013-04-22 21:20:00,
2013-04-22 14:25:00,94.3,26.9,29.93,NNE,18,7.6,9.2,9,0.00,,---,0.00,VWS V14.00,2013-04-22 21:25:00,
2013-04-22 14:30:00,94.3,26.9,29.93,WNW,287,4.0,8.3,9,0.00,,---,0.00,VWS V14.00,2013-04-22 21:30:00,
2013-04-22 14:35:00,94.3,26.9,29.93,WNW,303,8.7,10.5,9,0.00,,---,0.00,VWS V14.00,2013-04-22 21:35:00,
2013-04-22 14:40:00,94.3,26.9,29.90,NNW,337,7.6,10.5,9,0.00,,---,0.00,VWS V14.00,2013-04-22 21:40:00,
2013-04-22 14:45:00,94.1,26.7,29.90,North,353,8.3,13.2,9,0.00,,---,0.00,VWS V14.00,2013-04-22 21:45:00,
2013-04-22 14:50:00,93.9,26.6,29.90,West,265,7.6,13.2,9,0.00,,---,0.00,VWS V14.00,2013-04-22 21:50:00,
2013-04-22 14:55:00,94.1,26.7,29.90,WNW,292,8.1,13.2,9,0.00,,---,0.00,VWS V14.00,2013-04-22 21:55:00,
2013-04-22 15:00:00,93.9,26.6,29.90,West,263,2.7,5.4,9,0.00,,---,0.00,VWS V14.00,2013-04-22 22:00:00,
2013-04-22 15:05:00,94.1,26.7,29.90,NNW,331,8.1,8.1,9,0.00,,---,0.00,VWS V14.00,2013-04-22 22:05:00,
2013-04-22 15:10:00,94.3,26.9,29.90,NNW,342,3.6,8.3,9,0.00,,---,0.00,VWS V14.00,2013-04-22 22:10:00,
2013-04-22 15:15:00,94.6,27.1,29.90,NW,325,4.0,8.3,9,0.00,,---,0.00,VWS V14.00,2013-04-22 22:15:00,
2013-04-22 15:20:00,94.8,27.3,29.90,NNW,327,8.3,12.8,9,0.00,,---,0.00,VWS V14.00,2013-04-22 22:20:00,
2013-04-22 15:25:00,94.6,27.1,29.90,South,173,3.1,12.8,9,0.00,,---,0.00,VWS V14.00,2013-04-22 22:25:00,
2013-04-22 15:30:00,94.6,32.0,29.90,West,267,2.7,4.9,11,0.00,,---,0.00,VWS V14.00,2013-04-22 22:30:00,
2013-04-22 15:35:00,94.8,32.2,29.90,West,277,8.7,11.0,11,0.00,,---,0.00,VWS V14.00,2013-04-22 22:35:00,
2013-04-22 15:40:00,94.6,27.1,29.87,West,274,8.1,12.8,9,0.00,,---,0.00,VWS V14.00,2013-04-22 22:40:00,
2013-04-22 15:45:00,94.5,27.0,29.87,NW,326,5.4,11.0,9,0.00,,---,0.00,VWS V14.00,2013-04-22 22:45:00,
2013-04-22 15:50:00,94.5,27.0,29.87,West,269,5.4,11.0,9,0.00,,---,0.00,VWS V14.00,2013-04-22 22:50:00,
2013-04-22 15:55:00,94.6,27.1,29.87,NNW,343,5.8,11.0,9,0.00,,---,0.00,VWS V14.00,2013-04-22 22:55:00,
2013-04-22 16:00:00,94.8,32.2,29.87,West,275,7.6,8.1,11,0.00,,---,0.00,VWS V14.00,2013-04-22 23:00:00,
2013-04-22 16:05:00,95.0,32.3,29.87,NW,305,4.9,8.1,11,0.00,,---,0.00,VWS V14.00,2013-04-22 23:05:00,
2013-04-22 16:10:00,94.8,32.2,29.87,NNW,339,8.3,8.7,11,0.00,,---,0.00,VWS V14.00,2013-04-22 23:10:00,
2013-04-22 16:15:00,94.6,32.0,29.87,NW,326,6.3,13.2,11,0.00,,---,0.00,VWS V14.00,2013-04-22 23:15:00,
2013-04-22 16:20:00,94.5,27.0,29.87,NNW,341,12.8,13.2,9,0.00,,---,0.00,VWS V14.00,2013-04-22 23:20:00,
2013-04-22 16:25:00,94.3,26.9,29.87,NNW,328,6.3,13.2,9,0.00,,---,0.00,VWS V14.00,2013-04-22 23:25:00,
2013-04-22 16:30:00,94.6,27.1,29.87,NW,305,4.0,5.4,9,0.00,,---,0.00,VWS V14.00,2013-04-22 23:30:00,
2013-04-22 16:35:00,94.6,32.0,29.87,NW,309,5.8,8.1,11,0.00,,---,0.00,VWS V14.00,2013-04-22 23:35:00,
2013-04-22 16:40:00,94.5,31.9,29.87,NNW,345,5.4,11.0,11,0.00,,---,0.00,VWS V14.00,2013-04-22 23:40:00,
2013-04-22 16:45:00,94.5,31.9,29.87,NNW,337,7.6,8.7,11,0.00,,---,0.00,VWS V14.00,2013-04-22 23:45:00,
2013-04-22 16:50:00,94.3,31.8,29.87,NNW,346,5.4,8.7,11,0.00,,---,0.00,VWS V14.00,2013-04-22 23:50:00,
2013-04-22 16:55:00,94.3,26.9,29.84,NNW,342,5.8,8.7,9,0.00,,---,0.00,VWS V14.00,2013-04-22 23:55:00,
2013-04-22 17:00:00,94.1,26.7,29.84,West,276,6.3,10.1,9,0.00,,---,0.00,VWS V14.00,2013-04-23 00:00:00,
2013-04-22 17:05:00,93.9,26.6,29.84,North,1,3.1,10.5,9,0.00,,---,0.00,VWS V14.00,2013-04-23 00:05:00,
2013-04-22 17:10:00,93.9,26.6,29.84,NW,325,5.8,10.5,9,0.00,,---,0.00,VWS V14.00,2013-04-23 00:10:00,
2013-04-22 17:15:00,93.7,26.5,29.84,North,353,5.8,5.8,9,0.00,,---,0.00,VWS V14.00,2013-04-23 00:15:00,
2013-04-22 17:20:00,93.7,31.4,29.84,West,268,2.7,6.3,11,0.00,,---,0.00,VWS V14.00,2013-04-23 00:20:00,
2013-04-22 17:25:00,93.7,26.5,29.84,NNW,343,5.4,8.1,9,0.00,,---,0.00,VWS V14.00,2013-04-23 00:25:00,
2013-04-22 17:30:00,93.4,26.2,29.84,NW,308,5.8,5.8,9,0.00,,---,0.00,VWS V14.00,2013-04-23 00:30:00,
2013-04-22 17:35:00,93.0,25.9,29.84,NNW,343,4.9,7.6,9,0.00,,---,0.00,VWS V14.00,2013-04-23 00:35:00,
2013-04-22 17:40:00,92.5,25.5,29.84,North,0,7.2,10.5,9,0.00,,---,0.00,VWS V14.00,2013-04-23 00:40:00,
2013-04-22 17:45:00,92.3,25.4,29.84,North,2,3.1,6.3,9,0.00,,---,0.00,VWS V14.00,2013-04-23 00:45:00,
2013-04-22 17:50:00,91.9,25.1,29.84,NNW,335,3.6,8.3,9,0.00,,---,0.00,VWS V14.00,2013-04-23 00:50:00,
2013-04-22 17:55:00,91.4,24.7,29.84,NNW,330,3.6,10.5,9,0.00,,---,0.00,VWS V14.00,2013-04-23 00:55:00,
2013-04-22 18:00:00,91.0,27.0,29.84,NNW,335,2.7,4.9,10,0.00,,---,0.00,VWS V14.00,2013-04-23 01:00:00,
2013-04-22 18:05:00,90.7,26.7,29.84,West,280,2.7,7.2,10,0.00,,---,0.00,VWS V14.00,2013-04-23 01:05:00,
2013-04-22 18:10:00,90.1,26.3,29.84,West,281,5.8,8.7,10,0.00,,---,0.00,VWS V14.00,2013-04-23 01:10:00,
2013-04-22 18:15:00,89.8,26.0,29.84,NW,310,5.8,6.3,10,0.00,,---,0.00,VWS V14.00,2013-04-23 01:15:00,
2013-04-22 18:20:00,89.2,25.6,29.84,NW,319,4.0,6.3,10,0.00,,---,0.00,VWS V14.00,2013-04-23 01:20:00,
2013-04-22 18:25:00,88.7,25.2,29.84,NNW,334,2.2,6.3,10,0.00,,---,0.00,VWS V14.00,2013-04-23 01:25:00,
2013-04-22 18:30:00,88.2,24.8,29.84,NNW,343,4.9,5.4,10,0.00,,---,0.00,VWS V14.00,2013-04-23 01:30:00,
2013-04-22 18:35:00,87.8,24.5,29.84,WNW,286,3.6,5.4,10,0.00,,---,0.00,VWS V14.00,2013-04-23 01:35:00,
2013-04-22 18:40:00,87.3,26.4,29.84,NW,324,9.2,9.2,11,0.00,,---,0.00,VWS V14.00,2013-04-23 01:40:00,
2013-04-22 18:45:00,86.9,26.1,29.84,NW,325,3.6,7.2,11,0.00,,---,0.00,VWS V14.00,2013-04-23 01:45:00,
2013-04-22 18:50:00,86.5,25.9,29.84,North,353,2.7,7.2,11,0.00,,---,0.00,VWS V14.00,2013-04-23 01:50:00,
2013-04-22 18:55:00,86.2,25.6,29.84,North,353,4.9,7.6,11,0.00,,---,0.00,VWS V14.00,2013-04-23 01:55:00,
2013-04-22 19:00:00,85.8,25.3,29.84,North,0,3.1,5.8,11,0.00,,---,0.00,VWS V14.00,2013-04-23 02:00:00,
2013-04-22 19:05:00,85.5,25.0,29.84,NNW,335,3.1,5.8,11,0.00,,---,0.00,VWS V14.00,2013-04-23 02:05:00,
2013-04-22 19:10:00,84.9,24.6,29.84,NNW,334,3.1,5.8,11,0.00,,---,0.00,VWS V14.00,2013-04-23 02:10:00,
2013-04-22 19:15:00,84.4,24.2,29.84,NNW,337,2.2,3.6,11,0.00,,---,0.00,VWS V14.00,2013-04-23 02:15:00,
2013-04-22 19:20:00,84.0,23.9,29.84,NW,322,0.0,3.6,11,0.00,,---,0.00,VWS V14.00,2013-04-23 02:20:00,
2013-04-22 19:25:00,83.5,23.5,29.84,NW,322,2.7,5.8,11,0.00,,---,0.00,VWS V14.00,2013-04-23 02:25:00,
2013-04-22 19:30:00,83.1,23.2,29.84,NNW,331,4.0,4.0,11,0.00,,---,0.00,VWS V14.00,2013-04-23 02:30:00,
2013-04-22 19:35:00,82.6,22.8,29.84,NNW,331,0.0,4.0,11,0.00,,---,0.00,VWS V14.00,2013-04-23 02:35:00,
2013-04-22 19:40:00,82.2,24.6,29.84,NW,313,3.1,4.0,12,0.00,,---,0.00,VWS V14.00,2013-04-23 02:40:00,
2013-04-22 19:45:00,81.9,24.3,29.84,NW,312,3.1,3.6,12,0.00,,---,0.00,VWS V14.00,2013-04-23 02:45:00,
2013-04-22 19:50:00,81.5,24.0,29.84,NNW,331,2.7,4.0,12,0.00,,---,0.00,VWS V14.00,2013-04-23 02:50:00,
2013-04-22 19:55:00,81.0,23.6,29.84,NNW,330,0.0,4.0,12,0.00,,---,0.00,VWS V14.00,2013-04-23 02:55:00,
2013-04-22 20:00:00,80.6,23.4,29.84,WNW,300,0.0,4.0,12,0.00,,---,0.00,VWS V14.00,2013-04-23 03:00:00,
2013-04-22 20:05:00,80.2,23.1,29.84,NW,310,0.0,4.0,12,0.00,,---,0.00,VWS V14.00,2013-04-23 03:05:00,
2013-04-22 20:10:00,79.9,22.8,29.87,WNW,297,3.6,4.9,12,0.00,,---,0.00,VWS V14.00,2013-04-23 03:10:00,
2013-04-22 20:15:00,79.7,22.6,29.87,WNW,295,3.1,3.1,12,0.00,,---,0.00,VWS V14.00,2013-04-23 03:15:00,
2013-04-22 20:20:00,79.3,22.4,29.87,NNW,341,0.0,3.1,12,0.00,,---,0.00,VWS V14.00,2013-04-23 03:20:00,
2013-04-22 20:25:00,79.0,22.1,29.87,NW,320,2.7,4.0,12,0.00,,---,0.00,VWS V14.00,2013-04-23 03:25:00,
2013-04-22 20:30:00,78.6,23.7,29.87,WNW,294,0.0,3.6,13,0.00,,---,0.00,VWS V14.00,2013-04-23 03:30:00,
2013-04-22 20:35:00,78.3,23.4,29.87,NW,314,0.0,3.6,13,0.00,,---,0.00,VWS V14.00,2013-04-23 03:35:00,
2013-04-22 20:40:00,78.1,23.3,29.87,NW,306,3.1,3.6,13,0.00,,---,0.00,VWS V14.00,2013-04-23 03:40:00,
2013-04-22 20:45:00,77.9,23.1,29.87,WNW,283,0.0,0.0,13,0.00,,---,0.00,VWS V14.00,2013-04-23 03:45:00,
2013-04-22 20:50:00,77.5,22.9,29.87,WNW,283,0.0,0.0,13,0.00,,---,0.00,VWS V14.00,2013-04-23 03:50:00,
2013-04-22 20:55:00,77.2,22.6,29.87,WNW,283,0.0,0.0,13,0.00,,---,0.00,VWS V14.00,2013-04-23 03:55:00,
2013-04-22 21:00:00,76.6,22.1,29.87,North,357,0.0,3.1,13,0.00,,---,0.00,VWS V14.00,2013-04-23 04:00:00,
2013-04-22 21:01:00,76.6,22.1,29.87,NW,322,2.7,3.1,13,0.00,,---,0.00,VWS V14.00,2013-04-23 04:01:00,
2013-04-22 21:06:00,76.6,22.1,29.87,WNW,300,3.1,5.8,13,0.00,,---,0.00,VWS V14.00,2013-04-23 04:06:00,
2013-04-22 21:11:00,76.6,22.1,29.87,West,273,3.1,5.8,13,0.00,,---,0.00,VWS V14.00,2013-04-23 04:11:00,
2013-04-22 21:16:00,76.5,22.0,29.87,NW,307,0.0,4.0,13,0.00,,---,0.00,VWS V14.00,2013-04-23 04:16:00,
2013-04-22 21:21:00,76.3,21.9,29.90,ENE,67,2.7,5.4,13,0.00,,---,0.00,VWS V14.00,2013-04-23 04:21:00,
2013-04-22 21:26:00,76.3,21.9,29.90,NNW,346,0.0,5.4,13,0.00,,---,0.00,VWS V14.00,2013-04-23 04:26:00,
2013-04-22 21:31:00,76.1,21.7,29.90,WNW,297,3.6,6.3,13,0.00,,---,0.00,VWS V14.00,2013-04-23 04:31:00,
2013-04-22 21:36:00,75.9,21.6,29.90,WNW,297,0.0,6.3,13,0.00,,---,0.00,VWS V14.00,2013-04-23 04:36:00,
2013-04-22 21:41:00,75.6,21.3,29.90,WNW,301,0.0,6.3,13,0.00,,---,0.00,VWS V14.00,2013-04-23 04:41:00,
2013-04-22 21:46:00,75.2,21.0,29.90,NNW,328,3.6,3.6,13,0.00,,---,0.00,VWS V14.00,2013-04-23 04:46:00,
2013-04-22 21:51:00,75.2,21.0,29.90,WNW,292,2.7,5.8,13,0.00,,---,0.00,VWS V14.00,2013-04-23 04:51:00,
2013-04-22 21:56:00,75.2,21.0,29.90,NNW,331,2.7,8.1,13,0.00,,---,0.00,VWS V14.00,2013-04-23 04:56:00,
2013-04-22 22:01:00,75.4,21.2,29.90,NNW,332,3.6,5.8,13,0.00,,---,0.00,VWS V14.00,2013-04-23 05:01:00,
2013-04-22 22:06:00,75.4,21.2,29.90,NNW,335,0.0,5.8,13,0.00,,---,0.00,VWS V14.00,2013-04-23 05:06:00,
2013-04-22 22:11:00,75.4,21.2,29.90,NNW,333,0.0,5.8,13,0.00,,---,0.00,VWS V14.00,2013-04-23 05:11:00,
2013-04-22 22:16:00,75.2,21.0,29.90,NNW,335,0.0,0.0,13,0.00,,---,0.00,VWS V14.00,2013-04-23 05:16:00,
2013-04-22 22:21:00,75.0,20.9,29.90,North,353,0.0,3.6,13,0.00,,---,0.00,VWS V14.00,2013-04-23 05:21:00,
2013-04-22 22:26:00,74.7,20.6,29.90,North,353,0.0,3.6,13,0.00,,---,0.00,VWS V14.00,2013-04-23 05:26:00,
2013-04-22 22:31:00,74.1,20.2,29.90,NNE,22,0.0,0.0,13,0.00,,---,0.00,VWS V14.00,2013-04-23 05:31:00,
2013-04-22 22:36:00,73.6,19.8,29.90,NNE,22,0.0,0.0,13,0.00,,---,0.00,VWS V14.00,2013-04-23 05:36:00,
2013-04-22 22:41:00,72.9,20.9,29.90,ENE,73,0.0,0.0,14,0.00,,---,0.00,VWS V14.00,2013-04-23 05:41:00,
2013-04-22 22:46:00,72.3,20.5,29.90,ENE,73,0.0,0.0,14,0.00,,---,0.00,VWS V14.00,2013-04-23 05:46:00,
2013-04-22 22:51:00,71.8,20.1,29.90,ENE,72,0.0,0.0,14,0.00,,---,0.00,VWS V14.00,2013-04-23 05:51:00,
2013-04-22 22:56:00,71.2,19.6,29.90,ENE,74,0.0,0.0,14,0.00,,---,0.00,VWS V14.00,2013-04-23 05:56:00,
2013-04-22 23:01:00,70.9,19.4,29.90,East,93,2.2,3.6,14,0.00,,---,0.00,VWS V14.00,2013-04-23 06:01:00,
2013-04-22 23:06:00,70.5,19.1,29.90,East,92,0.0,3.6,14,0.00,,---,0.00,VWS V14.00,2013-04-23 06:06:00,
2013-04-22 23:11:00,70.2,18.8,29.90,East,89,0.0,3.6,14,0.00,,---,0.00,VWS V14.00,2013-04-23 06:11:00,
2013-04-22 23:16:00,69.8,18.5,29.90,NE,53,0.0,3.6,14,0.00,,---,0.00,VWS V14.00,2013-04-23 06:16:00,
2013-04-22 23:21:00,69.4,19.8,29.90,NE,53,0.0,3.6,15,0.00,,---,0.00,VWS V14.00,2013-04-23 06:21:00,
2013-04-22 23:26:00,68.9,19.4,29.90,NE,53,0.0,3.6,15,0.00,,---,0.00,VWS V14.00,2013-04-23 06:26:00,
2013-04-22 23:31:00,68.7,19.2,29.90,NE,53,0.0,0.0,15,0.00,,---,0.00,VWS V14.00,2013-04-23 06:31:00,
2013-04-22 23:36:00,68.2,18.8,29.90,NE,53,0.0,0.0,15,0.00,,---,0.00,VWS V14.00,2013-04-23 06:36:00,
2013-04-22 23:41:00,67.8,18.5,29.90,East,95,0.0,0.0,15,0.00,,---,0.00,VWS V14.00,2013-04-23 06:41:00,
2013-04-22 23:46:00,67.5,18.2,29.90,East,101,0.0,0.0,15,0.00,,---,0.00,VWS V14.00,2013-04-23 06:46:00,
2013-04-22 23:51:00,67.1,17.9,29.90,ESE,110,0.0,0.0,15,0.00,,---,0.00,VWS V14.00,2013-04-23 06:51:00,
2013-04-22 23:56:00,66.7,17.6,29.90,SSE,163,0.0,0.0,15,0.00,,---,0.00,VWS V14.00,2013-04-23 06:56:00,